Location: Moscow
(38.8570°N, 84.2291°W)
Time: 12:04:30
(UTC+00:00)

DOVE 4 - Visible Passes

Search period start: 15 March 2026 00:00
Search period end: 25 March 2026 00:00
Orbit: 572 x 755 km, 97.7° (Epoch: 14 March)

Date Brightness Start Highest point End Pass type
(mag) Time Alt. Az. Time Alt. Az. Time Alt. Az.
15 Mar ? 00:35:18 10° NNE 00:39:45 40° E 00:44:22 10° SSE visible
15 Mar ? 02:13:03 10° NNW 02:16:29 21° WNW 02:20:02 10° WSW visible
16 Mar ? 01:05:52 10° NNE 01:10:37 86° ESE 01:15:33 10° SSW visible
16 Mar ? 02:46:24 10° NW 02:46:58 10° WNW 02:47:33 10° WNW visible
17 Mar ? 01:36:50 10° N 01:41:21 45° WNW 01:46:03 10° SW visible
17 Mar ? 11:02:39 10° E 11:04:04 12° ENE 11:05:32 10° NE visible
18 Mar ? 00:30:45 10° NNE 00:35:12 37° E 00:39:47 10° SSE visible
18 Mar ? 02:08:16 10° NNW 02:11:59 23° WNW 02:15:47 10° WSW visible
19 Mar ? 01:01:15 10° NNE 01:06:04 79° E 01:11:03 10° S visible
19 Mar ? 02:40:50 10° NW 02:42:27 12° WNW 02:44:06 10° W visible
20 Mar ? 01:32:09 10° N 01:36:49 50° WNW 01:41:37 10° SSW visible
20 Mar ? 10:58:32 10° ENE 10:59:29 11° ENE 11:00:26 10° NE visible
21 Mar ? 00:26:11 10° NNE 00:30:37 34° E 00:35:09 10° SSE visible
21 Mar ? 02:03:29 10° NNW 02:07:26 25° WNW 02:11:28 10° WSW visible
22 Mar ? 00:56:36 10° NNE 01:01:29 72° ESE 01:06:29 10° S visible
22 Mar ? 02:35:43 10° NW 02:37:55 13° WNW 02:40:08 10° W visible
23 Mar ? 01:27:27 10° N 01:32:14 55° WNW 01:37:08 10° SSW visible
24 Mar ? 00:21:36 10° NNE 00:26:00 32° E 00:30:27 10° SSE visible
24 Mar ? 01:58:43 10° NNW 02:02:51 28° WNW 02:07:05 10° SW visible
